Regional Weather Roundup
Issued by NWS Charleston, WV

Home | Current Version | Previous Version | Text Only | Print | Product List | Glossary On
Versions: 1 2 3 4 5 6 7 8 9 10 11 12 13 14 15 16 17 18 19 20 21 22 23 24 25 26 27 28 29 30 31 32 33 34 35 36 37 38 39 40 41 42 43 44 45 46 47 48 49 50
000
ASUS41 KRLX 280510
RWRRLX
West Virginia Regional Weather Roundup
National Weather Service Charleston WV
100 AM EDT FRI AUG 28 2015

Note: "fair" indicates few or no clouds below 12,000 feet with no
significant weather and/or obstructions to visibility.

WVZ003-280600-
Northern Panhandle of West Virginia

CITY           SKY/WX    TMP DP  RH WIND       PRES   REMARKS
WHEELING       MOCLDY    61  56  83 CALM      30.19S
$$

WVZ009-280600-
Northwest West Virginia

CITY           SKY/WX    TMP DP  RH WIND       PRES   REMARKS
PARKERSBURG    CLEAR     56  53  90 CALM      30.19F
$$

WVZ006-280600-
Western West Virginia

CITY           SKY/WX    TMP DP  RH WIND       PRES   REMARKS
HUNTINGTON     CLEAR     57  57 100 CALM      30.16S
$$

WVZ015-280600-
West Central West Virginia

CITY           SKY/WX    TMP DP  RH WIND       PRES   REMARKS
CHARLESTON     PTCLDY    58  56  93 CALM      30.17S
$$

WVZ022-031-280600-
North Central West Virginia

CITY           SKY/WX    TMP DP  RH WIND       PRES   REMARKS
CLARKSBURG     CLEAR     55  53  93 CALM      30.19S
MORGANTOWN     CLEAR     59  52  77 CALM      30.20F
$$

WVZ025-035-042-045-280600-
Southern West Virginia

CITY           SKY/WX    TMP DP  RH WIND       PRES   REMARKS
BECKLEY        CLEAR     58  53  84 SE3       30.22S
LOGAN            N/A     63  57  82 CALM      30.18S
BLUEFIELD      CLEAR     62  54  74 CALM      30.23S
LEWISBURG      PTCLDY    56  54  91 CALM      30.22S
$$

WVZ047-280600-
Northern Mountains of West Virginia

CITY           SKY/WX    TMP DP  RH WIND       PRES   REMARKS
ELKINS         PTCLDY    53  50  89 CALM      30.23S
$$

WVZ052-280600-
Eastern Panhandle of West Virginia

CITY           SKY/WX    TMP DP  RH WIND       PRES   REMARKS
MARTINSBURG    CLEAR     58  54  86 CALM      30.18S
PETERSBURG     PTCLDY    56  54  95 CALM      30.21S
$$



USA.gov is the U.S. government's official web portal to all federal, state and local government web resources and services.